Zurück zum Katalog

STARLINK-5426

AktivKommunikationVLEO
NORAD 54802·PAYLOAD·🇺🇸 United States

Gestartet Dec 17, 2022 von Cape Canaveral Space Force Station

Loading…

Nächste Überflüge (nächste 24 Stunden)

TLE

AktuellSource: CelesTrak SupGP

Epoche: Sep 14, 2026, 22:17 UTC

1 54802C 22175AW  26257.92895833  .00213910  00000+0  96225-2 0  2573
2 54802  53.1613 218.5257 0001669  82.9825  61.5242 15.20480056    18

Verfolge STARLINK-5426 in Echtzeit mit AllMySat

Download on the App Store